OBJECT E, 44314

Orbit data source: Space-Track

You're viewing an Uncataloged Satellite

Recently launched and/or uncataloged satellites may have evolving metadata. Metadata may include but not limited to: Owner, Maufacturer, Bus, Motor, and Mission.

OBJECT E, 44314 is a satellite owned by CAST (CN) in LEO that was launched on Wed, 05 Jun 2019 UTC via a CHANG ZHENG 11 launch vehicle from the Yellow Sea Launch Area, China (YSLA). Unknown objects in Earth's orbit typically refer to objects detected orbiting the Earth but have not yet been identified or cataloged. These objects could be anything from previously untracked satellites, spent rocket stages, debris from satellite collisions, or even natural meteoroids temporarily captured by Earth's gravity.

Loading next visibility...
OBJECT E details
Identifier
44314, 2019-032E
Orbit
LEO
Last TLE update8 hours ago
Origin
Flag of CNCAST (CN / PRC)
ManufacturerCAST?
MissionOperational Commercial Weather
Bus & MotorBF, Unknown motor
Mass~10 kg wet, ~10 kg dry
Launch date (UTC)
2019-06-05 (6 years ago)
Launch vehicle
CHANG ZHENG 11
Launch site
Yellow Sea Launch Area, China (YSLA)
Object typeUnknown
Shape & HBRBox, 0.3 m
Radar Cross Section0.105 m², Medium (>0.1 m² and < 1m²)

Expand to show TLE details & history

TLE from 8 hours ago
0 OBJECT E
1 44314U 19032E   24339.84893893  .00013142  00000-0  63846-3 0  9995
2 44314  44.9822 156.7144 0010350 323.4919  36.5254 15.18429109302500
Epoch: 2024-12-04T20:22Z
Definitive object data (Epoch: 2024-12-04T20:22:28.323Z)
Latitude-0.00001°
Longitude136.95818°
Altitude504.858 km
Speed7.617 km/s
True Right ascension10h 26m 51s
True Declination0° 00' 00"
Sunlit
Object was in daylight at TLE epoch
Visualization TLE readout
Latitude-23.93283°
Longitude109.0108°
Altitude509.424 km
Speed7.614 km/s
Apparent Right ascension10h 54m 45s
Apparent Declination-38° 55' 32"
Sunlit
Object is in daylight
Visualization observer readout
Local Sidereal Time02:04:21
Azimuth104.116° ESE
Elevation-53.81°
Doppler factor1
Orbital elements
Apogee altitude519.325 km
Perigee altitude505.062 km
Semi-major axis6,890.33 km
Eccentricity0.001035
Inclination44.9822°
RAAN156.7144°
Arg. of periapsis323.4919°
True anomaly36.59606°
Mean anomaly36.5254°
Eccentric anomaly36.56072°
Mean motion3.79475 °/min
BSTAR0.00063846
Orbital period94.87 mins
Loading maneuver chart data...
Loading historical data...
Loading historical data...
Loading historical data...
Loading historical data...
Loading historical data...
Loading historical data...
Loading historical data...

OBJECT E Visibility forecast

Observer location: undefined°, undefined

Span
Click to sort rows by Start time (UTC) header in descending order
Start Az.
Max El. time (UTC)
Max El. Az.
Max El.
End time (UTC)
End Az.
6 mins2024-12-05 15:33:00.033Z230.96° WSW2024-12-05 15:35:00.033Z192.613° SSW41.391°2024-12-05 15:39:00.033Z70.322° E
5 mins2024-12-05 17:13:00.033Z290.656° WNW2024-12-05 17:15:00.033Z351.732° N34.659°2024-12-05 17:18:00.033Z59.474° ENE
5 mins2024-12-05 18:53:00.033Z312.166° NW2024-12-05 18:55:00.033Z15.9° NNE34.016°2024-12-05 18:58:00.033Z78.37° E
6 mins2024-12-05 20:32:00.033Z288.375° WNW2024-12-05 20:34:00.033Z259.264° W41.992°2024-12-05 20:38:00.033Z122.709° SE
|